CW7536 Weather Reports


Display with metric or nautical units.
time (UTC)temp
F
wind
direction
speed
MPH
gust
MPH
rain 1hr
in
rain 24hr
in
rain mn
in
humidity
%
barometer
mb
20260903101547 67 281 0.0 2.0 0.00 0.00 0.00 1 1015.4
20260903100039 67 229 0.0 1.0 0.00 0.00 0.00 1 1015.4
20260903094537 68 290 0.0 1.0 0.00 0.00 0.00 1 1015.3
20260903093040 68 44 0.0 0.0 0.00 0.00 0.00 1 1015.2
20260903091525 68 45 0.0 0.0 0.00 0.00 0.00 1 1015.1
20260903090030 68 32 1.0 3.0 0.00 0.00 0.00 1 1015.3
20260903084516 68 271 2.0 12.0 0.00 0.00 0.00 1 1014.7
20260903083012 68 245 2.0 10.0 0.00 0.00 0.00 1 1014.5
20260903081507 68 235 1.0 7.0 0.00 0.00 0.00 1 1014.6
20260903080003 68 259 0.0 2.0 0.00 0.00 0.00 1 1016.6
20260903074622 68 264 0.0 3.0 0.00 0.00 0.00 1 1016.1
20260903073107 68 290 0.0 3.0 0.00 0.00 0.00 1 1016.2
20260903071554 67 278 0.0 1.0 0.00 0.00 0.00 1 1015.7
20260903070049 67 289 0.0 1.0 0.00 0.00 0.00 1 1015.2
20260903064545 67 356 0.0 1.0 0.00 0.00 0.00 1 1016.1
20260903063041 67 343 0.0 1.0 0.00 0.00 0.00 1 1016.7
20260903061543 67 343 0.0 0.0 0.00 0.00 0.00 1 1017.0
20260903060033 67 343 0.0 0.0 0.00 0.00 0.00 1 1016.9
20260903054527 67 342 0.0 1.0 0.00 0.00 0.00 1 1017.3
20260903053022 67 339 0.0 4.0 0.00 0.00 0.00 1 1017.5
20260903051517 67 233 0.0 2.0 0.00 0.00 0.00 1 1017.2
20260903050025 67 156 0.0 1.0 0.00 0.00 0.00 1 1018.5
20260903044508 67 264 0.0 0.0 0.00 0.00 0.00 1 1019.0
20260903043006 67 136 0.0 0.0 0.00 0.00 0.00 1 1019.0
20260903041600 67 72 0.0 0.0 0.00 0.00 0.00 1 1019.4
20260903040056 67 72 0.0 0.0 0.00 0.00 0.00 1 1018.9
20260903034555 67 72 0.0 0.0 0.00 0.00 0.00 1 1018.9
20260903033047 67 72 0.0 0.0 0.00 0.00 0.00 1 1018.3
20260903031600 67 72 0.0 0.0 0.00 0.00 0.00 1 1018.6
20260903030044 67 72 0.0 0.0 0.00 0.00 0.00 1 1018.4
20260903024538 67 72 0.0 0.0 0.00 0.00 0.00 1 1018.6
20260903023030 67 72 0.0 1.0 0.00 0.00 0.00 1 1018.6
20260903021525 67 72 0.0 0.0 0.00 0.00 0.00 1 1018.8
20260903020022 67 72 0.0 0.0 0.00 0.00 0.00 1 1019.1
20260903014524 68 72 0.0 0.0 0.00 0.00 0.00 1 1018.7
20260903013031 68 72 0.0 0.0 0.00 0.00 0.00 1 1018.7
20260903011520 68 72 0.0 0.0 0.00 0.00 0.00 1 1019.1
20260903010016 68 37 0.0 0.0 0.00 0.00 0.00 1 1019.3
20260903004516 68 37 0.0 0.0 0.00 0.00 0.00 1 1019.1
20260903003008 68 37 0.0 0.0 0.00 0.00 0.00 1 1019.3
20260903001502 68 37 0.0 1.0 0.00 0.00 0.00 1 1019.2
20260903000058 68 37 0.0 0.0 0.00 0.00 0.00 1 1019.0
20260902234602 68 37 0.0 0.0 0.00 0.00 0.00 1 1018.7
20260902233100 68 37 0.0 0.0 0.00 0.00 0.00 1 1018.7
20260902231650 68 37 0.0 1.0 0.00 0.00 0.00 1 1018.5
20260902230049 68 32 0.0 0.0 0.00 0.00 0.00 1 1018.6
20260902224541 68 32 0.0 1.0 0.00 0.00 0.00 1 1018.7
20260902223043 68 32 0.0 1.0 0.00 0.00 0.00 1 1019.1
20260902221532 68 68 0.0 0.0 0.00 0.00 0.00 1 1019.2
20260902220028 68 68 0.0 1.0 0.00 0.00 0.00 1 1019.4
20260902214528 68 86 0.0 1.0 0.00 0.00 0.00 1 1019.3
20260902213026 68 91 0.0 2.0 0.00 0.00 0.00 1 1019.5
20260902211514 68 91 0.0 1.0 0.00 0.00 0.00 1 1019.4
20260902210016 67 95 0.0 1.0 0.00 0.00 0.00 1 1019.3
20260902204506 67 75 0.0 1.0 0.00 0.00 0.00 1 1019.5
20260902203003 67 75 0.0 1.0 0.00 0.00 0.00 1 1019.4
20260902201502 67 75 0.0 1.0 0.00 0.00 0.00 1 1019.4
20260902200059 67 75 0.0 1.0 0.00 0.00 0.00 1 1019.3
20260902194553 67 74 0.0 1.0 0.00 0.00 0.00 1 1019.5
20260902193049 67 57 0.0 2.0 0.00 0.00 0.00 1 1019.8
20260902191551 67 98 1.0 3.0 0.00 0.00 0.00 1 1019.9
20260902190041 67 29 1.0 4.0 0.00 0.00 0.00 1 1020.2
20260902184547 67 93 0.0 1.0 0.00 0.00 0.00 1 1019.9
20260902183033 67 93 0.0 0.0 0.00 0.00 0.00 1 1020.0
20260902181528 67 93 0.0 0.0 0.00 0.00 0.00 1 1020.2
20260902180029 67 93 0.0 1.0 0.00 0.00 0.00 1 1020.3
20260902174520 67 82 0.0 1.0 0.00 0.00 0.00 1 1020.0
20260902173016 67 82 0.0 0.0 0.00 0.00 0.00 1 1020.2
20260902171511 67 82 0.0 1.0 0.00 0.00 0.00 1 1020.3
20260902170012 67 82 0.0 0.0 0.00 0.00 0.00 1 1020.6
20260902164505 66 82 0.0 2.0 0.00 0.00 0.00 1 1020.4
20260902163001 66 41 0.0 1.0 0.00 0.00 0.00 1 1020.7
20260902161601 66 41 0.0 1.0 0.00 0.00 0.00 1 1020.9
20260902160059 66 41 0.0 0.0 0.00 0.00 0.00 1 1020.8
20260902154549 66 41 0.0 1.0 0.00 0.00 0.00 1 1020.6
20260902153044 65 41 0.0 2.0 0.00 0.00 0.00 1 1020.6
20260902151544 66 49 0.0 2.0 0.00 0.00 0.00 1 1020.8
20260902150035 65 53 0.0 3.0 0.00 0.00 0.00 1 1020.9
20260902144538 65 46 0.0 2.0 0.00 0.00 0.00 1 1020.6
20260902143026 65 26 0.0 2.0 0.00 0.00 0.00 1 1020.5
20260902141521 65 69 0.0 2.0 0.00 0.00 0.00 1 1020.6
20260902140016 65 72 1.0 3.0 0.00 0.00 0.00 1 1020.5
20260902134513 65 64 0.0 3.0 0.00 0.00 0.00 1 1020.6
20260902133009 65 56 1.0 4.0 0.00 0.00 0.00 1 1020.6
20260902131504 64 74 0.0 2.0 0.00 0.00 0.00 1 1020.4
20260902130100 64 44 0.0 4.0 0.00 0.00 0.00 1 1020.3
20260902124557 64 65 0.0 2.0 0.00 0.00 0.00 1 1020.3
20260902123110 64 91 0.0 2.0 0.00 0.00 0.00 1 1020.1
20260902121556 64 39 0.0 2.0 0.00 0.00 0.00 1 1019.9
20260902120053 64 52 0.0 3.0 0.00 0.00 0.00 1 1020.0
20260902114538 64 70 0.0 2.0 0.00 0.00 0.00 1 1020.0
20260902113034 64 64 0.0 3.0 0.00 0.00 0.00 1 1019.8
20260902111537 64 53 1.0 4.0 0.00 0.00 0.00 1 1019.8
20260902110025 65 71 0.0 4.0 0.00 0.00 0.00 1 1019.8
20260902104521 65 41 0.0 3.0 0.00 0.00 0.00 1 1019.8